Location: Newark
(50.4348°N, 30.5552°E)
Time: 13:38:51
(UTC+00:00)

Vanguard 3 - Pass Details

Date: 21 January 2020
Orbit: 508 x 3263 km, 33.3° (Epoch: 24 February)

Event Time Altitude Azimuth Distance (km) Brightness Sun altitude
Rises 16:32:58 0° 228° (SW) 7,220 12.9 -19.0°
Reaches altitude 10° 16:38:36 10° 220° (SW) 6,168 12.3 -19.9°
Maximum altitude 16:54:23 34° 166° (SSE) 3,884 10.4 -22.4°
Enters shadow 17:02:04 22° 122° (ESE) 4,030 10.2 -23.6°
